#timestamp,LO_Frequency,Hit,StdDev 
1635732015.6,286046998.9,N
1635732035.4,286046998.2,N
1635732055.3,286047001.2,N
1635732075.1,286047001.1,N
1635732095.8,286047000.5,N
1635732115.7,286047002.5,N
1635732135.5,286047001.6,N
1635732155.3,286047004.2,N
1635732175.2,286047005.9,Y
1635732195.0,286047003.2,P
1635732195.9,286047003.2,N
1635732215.7,286047003.8,N
1635732235.6,286047004.2,Y
1635732255.4,286047001.2,P
1635732275.2,286046998.9,N
1635732295.1,286046997.8,N
1635732296.0,286046997.8,N
1635732315.8,286046995.1,N
1635732335.6,286046993.3,N
1635732355.5,286046996.4,N
1635732375.3,286046993.7,N
1635732395.1,286046993.8,N
1635732415.9,286046994.3,N
1635732435.7,286046994.4,N
1635732455.5,286046994.1,N
1635732475.4,286046993.9,N
1635732495.2,286046993.5,N
1635732515.1,286046994.5,N
1635732516.0,286046994.5,N
1635732535.8,286046994.3,N
1635732555.6,286046991.9,Y
1635732575.5,286046997.3,P
1635732595.3,286046997.6,P
1635732615.1,286046995.3,P
1635732635.9,286046994.9,Y
1635732655.7,286047000.0,P
1635732675.5,286047002.7,N
1635732695.4,286047000.2,N
1635732715.2,286047000.1,N
1635732735.0,286046999.9,N
1635732735.9,286046999.9,N
1635732755.8,286047000.1,N
1635732775.6,286046999.9,N
1635732795.4,286047000.2,N
1635732815.3,286047000.1,N
1635732835.1,286047002.4,N
1635732855.8,286047002.1,N
1635732875.7,286047001.9,N
1635732895.5,286047001.3,N
1635732915.3,286047003.7,N
1635732935.2,286047003.4,N
1635732955.0,286047005.8,Y
1635732955.9,286047005.8,P
1635732975.7,286047005.9,N
1635732995.6,286047007.0,N
1635733015.4,286047009.1,Y
1635733035.2,286047003.6,P
1635733055.1,286047004.8,P
1635733056.0,286047004.8,P
1635733075.8,286047005.0,Y
1635733095.7,286047001.1,P
1635733115.5,286046999.3,N
1635733135.3,286046995.6,N
1635733155.2,286046997.9,N
1635733175.9,286047002.3,N
1635733195.7,286047000.1,N
1635733215.6,286046997.4,N
1635733235.4,286046995.6,N
1635733255.2,286046995.5,N
1635733275.1,286046995.9,N
1635733276.0,286046995.9,N
1635733295.8,286046996.4,N
1635733315.6,286046993.9,N
1635733335.5,286046993.3,N
1635733355.3,286046993.3,N
1635733375.1,286046996.3,N
1635733395.9,286046995.7,N
1635733415.7,286046993.7,N
1635733435.5,286046991.9,N
1635733455.4,286046991.8,N
1635733475.2,286046994.7,N
1635733495.0,286046991.7,N
1635733495.9,286046991.7,N
1635733515.8,286046992.6,N
1635733535.6,286046993.2,N
1635733555.4,286046992.7,N
1635733575.3,286046992.6,N
1635733595.1,286046992.4,N
1635733615.8,286046990.1,Y
1635733635.7,286046997.9,P
1635733655.5,286046995.0,P
1635733675.3,286046995.3,P
1635733695.2,286046997.5,N
1635733715.0,286046995.0,Y
1635733715.9,286046995.0,P
1635733735.7,286047001.2,N
1635733755.6,286046998.1,N
1635733775.4,286047001.2,N
1635733795.2,286047000.4,N
1635733815.1,286047000.3,N
1635733816.0,286047000.3,N
1635733835.8,286047000.2,N
1635733855.7,286046999.7,N
1635733875.5,286047000.1,N
1635733895.3,286046999.7,N
1635733915.2,286047011.9,Y
1635733935.9,286046999.8,P
1635733955.7,286047002.5,P
1635733975.6,286047002.6,N
1635733995.4,286046999.9,N
1635734015.2,286047002.7,N
1635734035.1,286047001.9,N
1635734036.0,286047001.9,N
1635734055.8,286047002.3,N
1635734075.6,286047001.9,N
1635734095.5,286047002.0,N
1635734115.3,286047002.0,N
1635734135.1,286047001.4,N
1635734155.9,286047004.1,Y
1635734175.7,286047002.8,P
1635734195.5,286047002.2,P
1635734215.4,286047002.0,P
1635734235.2,286047002.7,Y
1635734255.0,286046998.1,P
1635734255.9,286046998.1,N
1635734275.8,286046998.4,N
1635734295.6,286047001.2,N
1635734315.4,286047000.8,N
1635734335.3,286047000.8,N
1635734355.1,286047000.9,N
1635734375.8,286047002.0,N
1635734395.7,286047002.8,N
1635734415.5,286047000.3,N
1635734435.3,286047000.9,N
1635734485.2,286047002.5,E
1635734495.1,286047000.7,N
1635734515.9,286046997.4,P
1635734535.7,286046995.0,P
1635734555.5,286046995.0,N
1635734575.4,286046998.0,N
1635734595.2,286046995.2,N
1635734615.0,286046995.0,N
1635734615.9,286046995.0,N
1635734635.8,286046995.5,N
1635734655.6,286046997.5,N
1635734675.4,286046997.3,N
1635734695.3,286046996.8,N
1635734715.1,286046999.5,N
1635734735.8,286046998.9,N
1635734755.7,286046998.6,N
1635734775.5,286047000.7,N
1635734795.3,286047002.3,N
1635734815.2,286047002.4,N
1635734835.0,286047000.4,N
1635734835.9,286047000.4,N
1635734855.7,286046998.8,N
1635734875.6,286047001.2,N
1635734895.4,286046998.6,N
1635734915.2,286046998.3,N
1635734935.1,286046998.2,N
1635734936.0,286046998.2,N
1635734955.8,286046998.6,N
1635734975.6,286046998.7,N
1635734995.5,286046998.3,N
1635735015.3,286047000.8,N
1635735035.1,286047000.6,N
1635735055.9,286046998.2,N
1635735075.7,286047000.7,N
1635735095.5,286047000.8,N
1635735115.4,286047000.5,N
1635735135.2,286047000.3,N
1635735155.0,286046999.7,N
1635735156.0,286046999.7,N
1635735175.8,286047000.6,N
1635735195.6,286047000.0,N
1635735215.5,286047000.5,N
1635735235.3,286047002.7,N
1635735255.1,286047001.9,N
1635735275.9,286047002.3,N
1635735295.7,286046999.7,N
1635735315.5,286046999.7,N
1635735335.4,286047002.2,N
1635735355.2,286047000.1,N
1635735375.0,286047001.0,N
1635735375.9,286047001.0,N
1635735395.8,286046998.4,N
1635735415.6,286047001.0,N
1635735435.4,286047000.9,N
1635735455.3,286046998.7,N
1635735475.1,286046998.1,N
1635735476.0,286046998.1,N
1635735495.8,286047000.6,N
1635735515.7,286047000.6,N
1635735535.5,286047000.9,N
1635735555.3,286047000.5,N
1635735575.2,286047002.3,N
1635735595.9,286047002.3,N
